Weather in Linyovo

Russia / Novosibirsk Oblast     54°27′25″N   83°22′53″E
temp.,
°C
wind,
m/s
gust,
m/s
humid.,
%
clouds,
%
prec.,
mm/h
press.,
hPa
HPBL,
m
25 february, thu
thu2501:00−15w7167896 1.8 1013706
04:00−21sw469044 0.0 101684
07:00−23ssw468622 0.0 101890
10:00−23ssw610890 0.0 1020349
13:00−19sw7118717 0.0 10211187
16:00−19sw91583100 0.1 10211772
19:00−19sw51295100 0.3 10221169
22:00−20sw51294100 0.1 1022860
26 february, fri
fri2601:00−22sw71386100 0.1 1023881
04:00−22sw71392100 0.1 1024883
07:00−23sw81389100 0.1 1027882
10:00−24sw91490100 0.1 1029790
13:00−22sw91490100 0.2 1032986
16:00−21wsw91390100 0.2 10331062
19:00−26sw61292100 0.1 1035458
22:00−28sw4129598 0.0 1038303
27 february, sat
sat2701:00−29sw399697 0.0 1038239
04:00−27sw4996100 0.1 1038376
07:00−26sw4995100 0.1 1038441
10:00−25sw5893100 0.1 1039480
13:00−23sw5892100 0.1 1039562
16:00−21sw5790100 0.1 1039612
19:00−25ssw339598 0.1 103832
22:00−27ssw349521 0.0 103935
28 february, sun
sun2801:00−28s339511 0.0 103931
04:00−28sse339712 0.0 103936
07:00−28sse359527 0.0 103862
10:00−24sse499960 0.0 1037251
13:00−18s6109177 0.0 1034388
16:00−13s61188100 0.0 1032640
19:00−11sse61290100 0.1 1028608
22:00−11s71491100 0.3 1025791
1 march, mon
mon101:00−9s71394100 1.4 1021911
04:00−8ssw71393100 1.8 1018769
07:00−7ssw81593100 3.6 1016794
10:00−6ssw91692100 0.8 1014858
13:00−3sw101690100 1.3 1013911
16:00−2sw101689100 0.1 1013944
19:00−2sw81593100 0.4 1013814
22:00−2sw81493100 0.4 1014747